| time (UTC) | temp F | wind direction | speed MPH | gust MPH | rain 1hr in | rain 24hr in | rain mn in | humidity % | barometer mb |
| 20260507083547 | 50 | 0 | 0.0 | 1.0 | 0.00 | 0.03 | 0.01 | 81 | 1020.6 |
| 20260507083053 | 50 | 0 | 0.0 | 1.0 | 0.00 | 0.03 | 0.01 | 79 | 1020.6 |
| 20260507082551 | 50 | 0 | 0.0 | 1.0 | 0.00 | 0.03 | 0.01 | 78 | 1020.7 |
| 20260507082045 | 49 | 0 | 0.0 | 1.0 | 0.00 | 0.03 | 0.01 | 78 | 1020.7 |
| 20260507081551 | 49 | 342 | 0.0 | 1.0 | 0.01 | 0.03 | 0.01 | 79 | 1020.7 |
| 20260507081048 | 49 | 0 | 0.0 | 2.0 | 0.01 | 0.03 | 0.01 | 80 | 1020.7 |
| 20260507080546 | 48 | 0 | 0.0 | 2.0 | 0.01 | 0.03 | 0.01 | 82 | 1020.8 |
| 20260507080056 | 48 | 0 | 0.0 | 1.0 | 0.01 | 0.03 | 0.01 | 82 | 1020.8 |
| 20260507075548 | 48 | 0 | 0.0 | 1.0 | 0.01 | 0.04 | 0.01 | 84 | 1020.8 |
| 20260507075048 | 48 | 0 | 0.0 | 1.0 | 0.01 | 0.04 | 0.01 | 84 | 1020.9 |
| 20260507074556 | 48 | 0 | 0.0 | 0.0 | 0.01 | 0.04 | 0.01 | 84 | 1020.9 |
| 20260507074046 | 48 | 0 | 0.0 | 0.0 | 0.01 | 0.04 | 0.01 | 84 | 1020.9 |
| 20260507073548 | 48 | 0 | 0.0 | 0.0 | 0.01 | 0.04 | 0.01 | 84 | 1020.9 |
| 20260507073101 | 48 | 0 | 0.0 | 0.0 | 0.01 | 0.04 | 0.01 | 83 | 1020.9 |
| 20260507072547 | 48 | 0 | 0.0 | 0.0 | 0.01 | 0.04 | 0.01 | 83 | 1021.0 |
| 20260507072048 | 48 | 0 | 0.0 | 0.0 | 0.01 | 0.04 | 0.01 | 83 | 1021.0 |
| 20260507071558 | 48 | 0 | 0.0 | 0.0 | 0.00 | 0.03 | 0.00 | 83 | 1021.1 |
| 20260507071047 | 48 | 0 | 0.0 | 0.0 | 0.00 | 0.03 | 0.00 | 83 | 1021.1 |
| 20260507070547 | 48 | 0 | 0.0 | 0.0 | 0.00 | 0.03 | 0.00 | 84 | 1021.2 |
| 20260507065549 | 48 | 0 | 0.0 | 0.0 | 0.00 | 0.03 | 0.03 | 85 | 1021.3 |
| 20260507065044 | 48 | 0 | 0.0 | 0.0 | 0.00 | 0.03 | 0.03 | 85 | 1021.3 |
| 20260507064559 | 49 | 0 | 0.0 | 0.0 | 0.00 | 0.03 | 0.03 | 84 | 1021.3 |
| 20260507064047 | 49 | 0 | 0.0 | 0.0 | 0.00 | 0.03 | 0.03 | 83 | 1021.3 |
| 20260507063550 | 49 | 0 | 0.0 | 0.0 | 0.00 | 0.03 | 0.03 | 83 | 1021.4 |
| 20260507063104 | 49 | 0 | 0.0 | 1.0 | 0.00 | 0.03 | 0.03 | 83 | 1021.4 |
| 20260507062546 | 49 | 0 | 0.0 | 1.0 | 0.00 | 0.03 | 0.03 | 82 | 1021.3 |
| 20260507062046 | 50 | 342 | 0.0 | 0.0 | 0.00 | 0.03 | 0.03 | 82 | 1021.4 |
| 20260507061558 | 50 | 0 | 0.0 | 1.0 | 0.00 | 0.03 | 0.03 | 81 | 1021.3 |
| 20260507061048 | 50 | 0 | 0.0 | 1.0 | 0.00 | 0.03 | 0.03 | 81 | 1021.2 |
| 20260507060545 | 50 | 0 | 0.0 | 1.0 | 0.00 | 0.03 | 0.03 | 82 | 1021.3 |
| 20260507060058 | 51 | 0 | 0.0 | 1.0 | 0.00 | 0.03 | 0.03 | 82 | 1021.1 |
| 20260507055547 | 51 | 0 | 0.0 | 2.0 | 0.00 | 0.03 | 0.03 | 81 | 1021.1 |
| 20260507055047 | 51 | 342 | 0.0 | 2.0 | 0.00 | 0.03 | 0.03 | 81 | 1021.1 |
| 20260507054601 | 51 | 342 | 0.0 | 2.0 | 0.00 | 0.03 | 0.03 | 80 | 1021.2 |
| 20260507054047 | 51 | 342 | 0.0 | 2.0 | 0.00 | 0.03 | 0.03 | 80 | 1021.4 |
| 20260507053547 | 52 | 342 | 0.0 | 2.0 | 0.00 | 0.03 | 0.03 | 79 | 1021.3 |
| 20260507053059 | 52 | 342 | 0.0 | 3.0 | 0.00 | 0.03 | 0.03 | 80 | 1021.3 |
| 20260507052546 | 52 | 342 | 0.0 | 3.0 | 0.00 | 0.03 | 0.03 | 78 | 1021.3 |
| 20260507052047 | 52 | 324 | 0.0 | 4.0 | 0.00 | 0.03 | 0.03 | 77 | 1021.4 |
| 20260507051558 | 52 | 0 | 0.0 | 4.0 | 0.00 | 0.03 | 0.03 | 78 | 1021.4 |
| 20260507051046 | 52 | 5 | 0.0 | 2.0 | 0.00 | 0.03 | 0.03 | 79 | 1021.4 |
| 20260507050547 | 52 | 0 | 0.0 | 2.0 | 0.00 | 0.03 | 0.03 | 78 | 1021.4 |
| 20260507050056 | 52 | 0 | 0.0 | 2.0 | 0.00 | 0.03 | 0.03 | 80 | 1021.4 |
| 20260507045551 | 52 | 0 | 0.0 | 2.0 | 0.00 | 0.03 | 0.03 | 80 | 1021.4 |
| 20260507045046 | 52 | 5 | 0.0 | 2.0 | 0.00 | 0.03 | 0.03 | 81 | 1021.3 |
| 20260507044601 | 52 | 0 | 0.0 | 2.0 | 0.00 | 0.03 | 0.03 | 80 | 1021.3 |
| 20260507044043 | 52 | 5 | 0.0 | 3.0 | 0.00 | 0.03 | 0.03 | 81 | 1021.3 |
| 20260507043547 | 52 | 5 | 0.0 | 3.0 | 0.00 | 0.03 | 0.03 | 82 | 1021.3 |
| 20260507043059 | 51 | 5 | 0.0 | 3.0 | 0.00 | 0.03 | 0.03 | 83 | 1021.2 |
| 20260507042544 | 51 | 0 | 0.0 | 2.0 | 0.00 | 0.03 | 0.03 | 85 | 1021.1 |
| 20260507042047 | 51 | 0 | 0.0 | 2.0 | 0.00 | 0.03 | 0.03 | 85 | 1021.1 |
| 20260507041559 | 50 | 0 | 0.0 | 1.0 | 0.00 | 0.03 | 0.03 | 86 | 1021.1 |
| 20260507041045 | 50 | 0 | 0.0 | 1.0 | 0.00 | 0.03 | 0.03 | 86 | 1021.1 |
| 20260507040549 | 50 | 0 | 0.0 | 1.0 | 0.00 | 0.03 | 0.03 | 87 | 1021.1 |
| 20260507040054 | 50 | 0 | 0.0 | 1.0 | 0.00 | 0.03 | 0.03 | 87 | 1021.1 |
| 20260507035547 | 50 | 0 | 0.0 | 2.0 | 0.00 | 0.04 | 0.03 | 88 | 1020.9 |
| 20260507035047 | 50 | 0 | 0.0 | 2.0 | 0.00 | 0.04 | 0.03 | 88 | 1020.9 |
| 20260507034606 | 50 | 0 | 0.0 | 2.0 | 0.00 | 0.04 | 0.03 | 88 | 1020.8 |
| 20260507034044 | 50 | 0 | 0.0 | 2.0 | 0.00 | 0.04 | 0.03 | 88 | 1020.7 |
| 20260507033547 | 51 | 0 | 0.0 | 2.0 | 0.00 | 0.04 | 0.03 | 88 | 1020.7 |
| 20260507033056 | 51 | 0 | 0.0 | 1.0 | 0.00 | 0.04 | 0.03 | 88 | 1020.6 |
| 20260507032544 | 51 | 0 | 0.0 | 0.0 | 0.00 | 0.04 | 0.03 | 88 | 1020.6 |
| 20260507032046 | 51 | 0 | 0.0 | 1.0 | 0.00 | 0.04 | 0.03 | 88 | 1020.6 |
| 20260507031559 | 51 | 0 | 0.0 | 1.0 | 0.00 | 0.04 | 0.03 | 88 | 1020.6 |
| 20260507031044 | 52 | 0 | 0.0 | 1.0 | 0.00 | 0.04 | 0.03 | 88 | 1020.6 |
| 20260507030550 | 52 | 0 | 0.0 | 0.0 | 0.00 | 0.04 | 0.03 | 87 | 1020.5 |
| 20260507030101 | 52 | 0 | 0.0 | 0.0 | 0.00 | 0.04 | 0.03 | 88 | 1020.6 |
| 20260507025548 | 52 | 0 | 0.0 | 1.0 | 0.00 | 0.04 | 0.03 | 87 | 1020.6 |
| 20260507025047 | 53 | 0 | 0.0 | 1.0 | 0.00 | 0.04 | 0.03 | 87 | 1020.5 |
| 20260507024558 | 53 | 0 | 0.0 | 1.0 | 0.00 | 0.04 | 0.03 | 87 | 1020.5 |
| 20260507024045 | 53 | 0 | 0.0 | 1.0 | 0.00 | 0.04 | 0.03 | 86 | 1020.4 |
| 20260507023545 | 54 | 0 | 0.0 | 0.0 | 0.00 | 0.04 | 0.03 | 86 | 1020.4 |
| 20260507023056 | 54 | 0 | 0.0 | 0.0 | 0.00 | 0.04 | 0.03 | 86 | 1020.4 |
| 20260507022545 | 54 | 0 | 0.0 | 0.0 | 0.00 | 0.04 | 0.03 | 84 | 1020.5 |
| 20260507022046 | 55 | 0 | 0.0 | 0.0 | 0.00 | 0.04 | 0.03 | 84 | 1020.5 |
| 20260507021557 | 55 | 0 | 0.0 | 0.0 | 0.00 | 0.04 | 0.03 | 84 | 1020.4 |
| 20260507021047 | 55 | 0 | 0.0 | 0.0 | 0.00 | 0.04 | 0.03 | 83 | 1020.3 |
| 20260507020547 | 56 | 0 | 0.0 | 0.0 | 0.00 | 0.04 | 0.03 | 82 | 1020.4 |
| 20260507020055 | 56 | 0 | 0.0 | 1.0 | 0.00 | 0.04 | 0.03 | 82 | 1020.3 |
| 20260507015546 | 56 | 0 | 0.0 | 1.0 | 0.00 | 0.04 | 0.03 | 81 | 1020.2 |
| 20260507015046 | 57 | 0 | 0.0 | 0.0 | 0.00 | 0.04 | 0.03 | 81 | 1020.3 |
| 20260507014556 | 57 | 0 | 0.0 | 1.0 | 0.00 | 0.04 | 0.03 | 80 | 1020.3 |
| 20260507014046 | 58 | 0 | 0.0 | 2.0 | 0.00 | 0.04 | 0.03 | 78 | 1020.3 |
| 20260507013547 | 58 | 0 | 0.0 | 6.0 | 0.00 | 0.04 | 0.03 | 77 | 1020.2 |
| 20260507013101 | 59 | 0 | 0.0 | 6.0 | 0.00 | 0.04 | 0.03 | 77 | 1020.2 |
| 20260507012547 | 59 | 190 | 0.0 | 4.0 | 0.00 | 0.04 | 0.03 | 76 | 1020.2 |
| 20260507012047 | 59 | 0 | 0.0 | 4.0 | 0.00 | 0.04 | 0.03 | 75 | 1020.1 |
| 20260507011556 | 60 | 0 | 1.0 | 4.0 | 0.00 | 0.04 | 0.03 | 74 | 1020.2 |
| 20260507011051 | 60 | 195 | 1.0 | 5.0 | 0.00 | 0.04 | 0.03 | 74 | 1020.2 |
| 20260507010547 | 60 | 224 | 1.0 | 6.0 | 0.00 | 0.04 | 0.03 | 73 | 1020.0 |
| 20260507010047 | 61 | 236 | 1.0 | 7.0 | 0.00 | 0.04 | 0.03 | 72 | 1020.0 |
| 20260507005547 | 61 | 0 | 2.0 | 8.0 | 0.00 | 0.05 | 0.03 | 72 | 1020.0 |
| 20260507005046 | 62 | 231 | 3.0 | 8.0 | 0.00 | 0.05 | 0.03 | 71 | 1020.0 |
| 20260507004550 | 62 | 181 | 1.0 | 4.0 | 0.00 | 0.05 | 0.03 | 70 | 1020.0 |
| 20260507004047 | 62 | 0 | 1.0 | 4.0 | 0.00 | 0.05 | 0.03 | 69 | 1020.0 |
| 20260507003550 | 63 | 0 | 0.0 | 4.0 | 0.00 | 0.05 | 0.03 | 69 | 1019.9 |
| 20260507003051 | 63 | 0 | 0.0 | 5.0 | 0.00 | 0.05 | 0.03 | 68 | 1019.9 |
| 20260507002546 | 63 | 161 | 2.0 | 5.0 | 0.00 | 0.05 | 0.03 | 67 | 1019.9 |
| 20260507002046 | 63 | 205 | 1.0 | 4.0 | 0.00 | 0.05 | 0.03 | 66 | 1019.7 |
| 20260507001552 | 63 | 205 | 1.0 | 7.0 | 0.00 | 0.05 | 0.03 | 66 | 1019.7 |
| 20260507001045 | 63 | 209 | 2.0 | 7.0 | 0.00 | 0.05 | 0.03 | 66 | 1019.7 |
| 20260507000551 | 64 | 211 | 2.0 | 7.0 | 0.00 | 0.05 | 0.03 | 65 | 1019.6 |
| 20260507000053 | 64 | 205 | 3.0 | 10.0 | 0.00 | 0.05 | 0.03 | 64 | 1019.6 |
| 20260506235547 | 64 | 156 | 2.0 | 10.0 | 0.00 | 0.05 | 0.03 | 65 | 1019.5 |
| 20260506235050 | 64 | 0 | 1.0 | 6.0 | 0.00 | 0.05 | 0.03 | 64 | 1019.4 |
| 20260506234555 | 64 | 151 | 2.0 | 8.0 | 0.00 | 0.05 | 0.03 | 66 | 1019.5 |
| 20260506234051 | 64 | 157 | 3.0 | 8.0 | 0.00 | 0.05 | 0.03 | 64 | 1019.5 |
| 20260506233547 | 64 | 188 | 2.0 | 7.0 | 0.00 | 0.05 | 0.03 | 63 | 1019.4 |
| 20260506233052 | 64 | 145 | 2.0 | 7.0 | 0.00 | 0.05 | 0.03 | 64 | 1019.5 |
| 20260506232549 | 65 | 172 | 3.0 | 7.0 | 0.00 | 0.05 | 0.03 | 62 | 1019.5 |
| 20260506232044 | 65 | 177 | 1.0 | 5.0 | 0.00 | 0.05 | 0.03 | 61 | 1019.5 |
| 20260506231651 | 65 | 271 | 1.0 | 6.0 | 0.00 | 0.05 | 0.03 | 61 | 1019.5 |
| 20260506231048 | 65 | 159 | 2.0 | 6.0 | 0.00 | 0.05 | 0.03 | 61 | 1019.5 |
| 20260506230546 | 65 | 190 | 1.0 | 7.0 | 0.00 | 0.05 | 0.03 | 60 | 1019.5 |
| 20260506230056 | 65 | 38 | 1.0 | 7.0 | 0.00 | 0.05 | 0.03 | 61 | 1019.5 |
| 20260506225548 | 65 | 158 | 1.0 | 5.0 | 0.00 | 0.06 | 0.03 | 61 | 1019.6 |
| 20260506225047 | 65 | 138 | 2.0 | 7.0 | 0.00 | 0.06 | 0.03 | 58 | 1019.6 |
| 20260506224601 | 65 | 155 | 2.0 | 7.0 | 0.00 | 0.06 | 0.03 | 58 | 1019.5 |
| 20260506224118 | 65 | 191 | 2.0 | 7.0 | 0.00 | 0.06 | 0.03 | 59 | 1019.6 |
| 20260506224047 | 65 | 191 | 2.0 | 7.0 | 0.00 | 0.06 | 0.03 | 59 | 1019.6 |
| 20260506223547 | 66 | 148 | 2.0 | 7.0 | 0.00 | 0.06 | 0.03 | 57 | 1019.7 |
| 20260506223049 | 66 | 195 | 2.0 | 6.0 | 0.00 | 0.06 | 0.03 | 54 | 1019.7 |
| 20260506222550 | 66 | 148 | 2.0 | 6.0 | 0.00 | 0.06 | 0.03 | 59 | 1019.7 |
| 20260506222046 | 66 | 216 | 1.0 | 9.0 | 0.00 | 0.06 | 0.03 | 56 | 1019.7 |
| 20260506221553 | 66 | 170 | 1.0 | 9.0 | 0.00 | 0.06 | 0.03 | 58 | 1019.7 |
| 20260506221045 | 66 | 199 | 3.0 | 9.0 | 0.00 | 0.06 | 0.03 | 55 | 1019.9 |
| 20260506220548 | 66 | 213 | 2.0 | 6.0 | 0.00 | 0.06 | 0.03 | 58 | 1019.9 |
| 20260506220052 | 65 | 182 | 2.0 | 10.0 | 0.00 | 0.06 | 0.03 | 58 | 1020.0 |
| 20260506215545 | 65 | 0 | 4.0 | 10.0 | 0.00 | 0.06 | 0.03 | 55 | 1020.0 |
| 20260506215045 | 65 | 127 | 3.0 | 9.0 | 0.00 | 0.06 | 0.03 | 57 | 1020.0 |
| 20260506214607 | 65 | 168 | 1.0 | 9.0 | 0.00 | 0.06 | 0.03 | 56 | 1020.1 |
| 20260506214047 | 65 | 169 | 3.0 | 7.0 | 0.00 | 0.06 | 0.03 | 57 | 1020.1 |
| 20260506213548 | 65 | 147 | 2.0 | 9.0 | 0.00 | 0.06 | 0.03 | 58 | 1020.1 |
| 20260506213054 | 65 | 123 | 2.0 | 9.0 | 0.00 | 0.06 | 0.03 | 58 | 1020.2 |
| 20260506212546 | 65 | 188 | 2.0 | 8.0 | 0.00 | 0.06 | 0.03 | 59 | 1020.2 |
| 20260506212045 | 65 | 136 | 1.0 | 6.0 | 0.00 | 0.06 | 0.03 | 58 | 1020.2 |
| 20260506211551 | 65 | 154 | 2.0 | 7.0 | 0.00 | 0.06 | 0.03 | 59 | 1020.2 |
| 20260506211044 | 65 | 117 | 1.0 | 10.0 | 0.00 | 0.06 | 0.03 | 59 | 1020.2 |
| 20260506210546 | 64 | 191 | 1.0 | 11.0 | 0.01 | 0.06 | 0.03 | 62 | 1020.2 |
| 20260506210055 | 64 | 160 | 3.0 | 12.0 | 0.01 | 0.06 | 0.03 | 59 | 1020.2 |
| 20260506205545 | 64 | 150 | 3.0 | 12.0 | 0.01 | 0.07 | 0.03 | 59 | 1020.2 |
| 20260506205047 | 64 | 164 | 2.0 | 6.0 | 0.01 | 0.07 | 0.03 | 60 | 1020.2 |
| 20260506204559 | 64 | 124 | 2.0 | 12.0 | 0.01 | 0.07 | 0.03 | 59 | 1020.3 |
| 20260506204046 | 65 | 180 | 2.0 | 12.0 | 0.01 | 0.07 | 0.03 | 57 | 1020.2 |
| 20260506203545 | 65 | 165 | 1.0 | 9.0 | 0.01 | 0.07 | 0.03 | 59 | 1020.3 |
| 20260506203052 | 65 | 188 | 1.0 | 9.0 | 0.01 | 0.07 | 0.03 | 57 | 1020.4 |
| 20260506202545 | 65 | 153 | 3.0 | 9.0 | 0.01 | 0.07 | 0.03 | 58 | 1020.4 |
| 20260506202045 | 65 | 175 | 4.0 | 9.0 | 0.01 | 0.07 | 0.03 | 60 | 1020.5 |
| 20260506201600 | 65 | 118 | 1.0 | 6.0 | 0.01 | 0.07 | 0.03 | 61 | 1020.5 |
| 20260506201048 | 65 | 153 | 2.0 | 7.0 | 0.01 | 0.07 | 0.03 | 61 | 1020.5 |
| 20260506200546 | 64 | 193 | 2.0 | 7.0 | 0.00 | 0.06 | 0.02 | 58 | 1020.5 |
| 20260506200055 | 63 | 92 | 1.0 | 10.0 | 0.00 | 0.06 | 0.02 | 62 | 1020.6 |
| 20260506195545 | 63 | 205 | 3.0 | 13.0 | 0.00 | 0.06 | 0.02 | 61 | 1020.6 |
| 20260506195048 | 63 | 204 | 4.0 | 13.0 | 0.00 | 0.06 | 0.02 | 62 | 1020.6 |
| 20260506194604 | 63 | 194 | 2.0 | 10.0 | 0.00 | 0.06 | 0.02 | 62 | 1020.6 |
| 20260506194050 | 63 | 188 | 2.0 | 9.0 | 0.00 | 0.06 | 0.02 | 64 | 1020.7 |
| 20260506193548 | 63 | 181 | 2.0 | 9.0 | 0.00 | 0.06 | 0.02 | 65 | 1020.7 |
| 20260506193057 | 63 | 173 | 2.0 | 9.0 | 0.00 | 0.06 | 0.02 | 62 | 1020.8 |
| 20260506192545 | 62 | 0 | 1.0 | 10.0 | 0.00 | 0.06 | 0.02 | 65 | 1020.7 |
| 20260506192045 | 62 | 198 | 3.0 | 10.0 | 0.00 | 0.06 | 0.02 | 62 | 1020.8 |
| 20260506191553 | 62 | 53 | 2.0 | 8.0 | 0.00 | 0.06 | 0.02 | 63 | 1020.8 |
| 20260506191047 | 63 | 195 | 2.0 | 6.0 | 0.00 | 0.06 | 0.02 | 63 | 1020.6 |
| 20260506190629 | 63 | 161 | 3.0 | 9.0 | 0.00 | 0.06 | 0.02 | 62 | 1020.6 |
| 20260506190547 | 63 | 161 | 3.0 | 9.0 | 0.00 | 0.06 | 0.02 | 62 | 1020.6 |
| 20260506190058 | 62 | 142 | 2.0 | 11.0 | 0.00 | 0.06 | 0.02 | 63 | 1020.5 |
| 20260506185545 | 62 | 210 | 3.0 | 11.0 | 0.00 | 0.07 | 0.02 | 61 | 1020.5 |
| 20260506185045 | 63 | 166 | 3.0 | 9.0 | 0.00 | 0.07 | 0.02 | 58 | 1020.5 |
| 20260506184558 | 62 | 165 | 2.0 | 8.0 | 0.00 | 0.07 | 0.02 | 62 | 1020.6 |
| 20260506184045 | 62 | 200 | 4.0 | 8.0 | 0.00 | 0.07 | 0.02 | 59 | 1020.6 |
| 20260506183545 | 62 | 158 | 2.0 | 7.0 | 0.00 | 0.07 | 0.02 | 61 | 1020.6 |
| 20260506183100 | 62 | 0 | 1.0 | 8.0 | 0.00 | 0.07 | 0.02 | 63 | 1020.6 |
| 20260506182547 | 62 | 218 | 3.0 | 9.0 | 0.00 | 0.07 | 0.02 | 60 | 1020.7 |
| 20260506182044 | 61 | 186 | 2.0 | 9.0 | 0.00 | 0.07 | 0.02 | 61 | 1020.7 |
| 20260506181551 | 61 | 202 | 3.0 | 9.0 | 0.00 | 0.07 | 0.02 | 58 | 1020.7 |
| 20260506181045 | 61 | 143 | 3.0 | 7.0 | 0.00 | 0.07 | 0.02 | 61 | 1020.7 |
| 20260506180545 | 61 | 195 | 3.0 | 6.0 | 0.00 | 0.07 | 0.02 | 60 | 1020.7 |
| 20260506180055 | 61 | 195 | 0.0 | 5.0 | 0.00 | 0.07 | 0.02 | 62 | 1020.6 |
| 20260506175545 | 61 | 156 | 1.0 | 5.0 | 0.00 | 0.07 | 0.02 | 62 | 1020.6 |
| 20260506175049 | 61 | 173 | 2.0 | 5.0 | 0.00 | 0.07 | 0.02 | 62 | 1020.6 |
| 20260506174553 | 61 | 180 | 0.0 | 5.0 | 0.00 | 0.07 | 0.02 | 63 | 1020.6 |
| 20260506174050 | 60 | 0 | 1.0 | 5.0 | 0.00 | 0.07 | 0.02 | 63 | 1020.8 |
| 20260506173548 | 60 | 176 | 2.0 | 5.0 | 0.00 | 0.07 | 0.02 | 60 | 1020.8 |
| 20260506173051 | 59 | 0 | 1.0 | 4.0 | 0.00 | 0.07 | 0.02 | 65 | 1020.7 |
| 20260506172545 | 59 | 190 | 1.0 | 4.0 | 0.00 | 0.07 | 0.02 | 63 | 1020.7 |
| 20260506172048 | 59 | 178 | 0.0 | 4.0 | 0.00 | 0.07 | 0.02 | 68 | 1020.6 |
| 20260506171559 | 58 | 212 | 0.0 | 4.0 | 0.00 | 0.07 | 0.02 | 68 | 1020.6 |
| 20260506171047 | 58 | 77 | 0.0 | 4.0 | 0.00 | 0.07 | 0.02 | 68 | 1020.6 |
| 20260506170549 | 57 | 43 | 0.0 | 4.0 | 0.00 | 0.07 | 0.02 | 68 | 1020.6 |
| 20260506165545 | 57 | 0 | 1.0 | 5.0 | 0.00 | 0.08 | 0.02 | 70 | 1020.5 |
| 20260506165046 | 57 | 155 | 0.0 | 5.0 | 0.00 | 0.08 | 0.02 | 70 | 1020.3 |
| 20260506164600 | 56 | 225 | 1.0 | 5.0 | 0.00 | 0.08 | 0.02 | 70 | 1020.2 |
| 20260506164044 | 56 | 215 | 1.0 | 4.0 | 0.00 | 0.08 | 0.02 | 69 | 1020.2 |
| 20260506163544 | 56 | 167 | 0.0 | 3.0 | 0.00 | 0.08 | 0.02 | 71 | 1020.1 |
| 20260506163105 | 55 | 0 | 0.0 | 2.0 | 0.00 | 0.08 | 0.02 | 70 | 1020.1 |
| 20260506162546 | 55 | 0 | 0.0 | 4.0 | 0.00 | 0.08 | 0.02 | 75 | 1020.0 |
| 20260506162047 | 54 | 0 | 0.0 | 4.0 | 0.00 | 0.08 | 0.02 | 75 | 1020.0 |
| 20260506161553 | 53 | 206 | 0.0 | 1.0 | 0.01 | 0.08 | 0.02 | 80 | 1020.0 |
| 20260506161045 | 52 | 0 | 0.0 | 2.0 | 0.01 | 0.08 | 0.02 | 81 | 1019.9 |
| 20260506160545 | 51 | 0 | 0.0 | 2.0 | 0.01 | 0.08 | 0.02 | 83 | 1019.9 |
| 20260506160053 | 50 | 0 | 0.0 | 2.0 | 0.01 | 0.08 | 0.02 | 83 | 1019.8 |
| 20260506155546 | 49 | 0 | 0.0 | 1.0 | 0.01 | 0.08 | 0.02 | 87 | 1019.8 |
| 20260506155048 | 48 | 0 | 0.0 | 1.0 | 0.01 | 0.08 | 0.02 | 90 | 1019.8 |
| 20260506154612 | 47 | 0 | 0.0 | 2.0 | 0.01 | 0.08 | 0.02 | 91 | 1019.8 |
| 20260506154045 | 46 | 0 | 0.0 | 2.0 | 0.01 | 0.08 | 0.02 | 93 | 1019.7 |
| 20260506153544 | 45 | 102 | 0.0 | 2.0 | 0.01 | 0.08 | 0.02 | 96 | 1019.7 |
| 20260506153055 | 44 | 0 | 0.0 | 2.0 | 0.01 | 0.08 | 0.02 | 96 | 1019.6 |
| 20260506152545 | 44 | 0 | 0.0 | 1.0 | 0.01 | 0.08 | 0.02 | 96 | 1019.6 |
| 20260506152045 | 44 | 0 | 0.0 | 2.0 | 0.01 | 0.08 | 0.02 | 96 | 1019.6 |
| 20260506151551 | 43 | 110 | 0.0 | 2.0 | 0.00 | 0.07 | 0.01 | 96 | 1019.7 |
| 20260506151044 | 43 | 0 | 0.0 | 2.0 | 0.00 | 0.07 | 0.01 | 96 | 1019.7 |
| 20260506150547 | 42 | 0 | 0.0 | 3.0 | 0.00 | 0.07 | 0.01 | 96 | 1019.7 |
| 20260506150056 | 42 | 0 | 0.0 | 3.0 | 0.00 | 0.07 | 0.01 | 96 | 1019.6 |
| 20260506145547 | 41 | 0 | 0.0 | 3.0 | 0.00 | 0.08 | 0.01 | 96 | 1019.6 |
| 20260506145050 | 41 | 0 | 0.0 | 3.0 | 0.00 | 0.08 | 0.01 | 96 | 1019.6 |
| 20260506144600 | 41 | 0 | 0.0 | 2.0 | 0.00 | 0.08 | 0.01 | 96 | 1019.7 |
| 20260506144048 | 40 | 0 | 0.0 | 2.0 | 0.00 | 0.08 | 0.01 | 96 | 1019.6 |
| 20260506143548 | 40 | 0 | 0.0 | 2.0 | 0.00 | 0.08 | 0.01 | 96 | 1019.6 |
| 20260506143055 | 40 | 0 | 0.0 | 2.0 | 0.00 | 0.08 | 0.01 | 96 | 1019.5 |
| 20260506142551 | 39 | 249 | 0.0 | 2.0 | 0.00 | 0.08 | 0.01 | 95 | 1019.4 |
| 20260506142046 | 39 | 0 | 0.0 | 1.0 | 0.00 | 0.08 | 0.01 | 95 | 1019.5 |
| 20260506141603 | 38 | 0 | 0.0 | 1.0 | 0.00 | 0.08 | 0.01 | 95 | 1019.4 |
| 20260506141045 | 38 | 0 | 0.0 | 1.0 | 0.00 | 0.08 | 0.01 | 95 | 1019.4 |
| 20260506140545 | 38 | 0 | 0.0 | 1.0 | 0.00 | 0.08 | 0.01 | 95 | 1019.3 |
| 20260506140112 | 37 | 0 | 0.0 | 1.0 | 0.00 | 0.08 | 0.01 | 95 | 1019.4 |
| 20260506135547 | 37 | 0 | 0.0 | 0.0 | 0.00 | 0.09 | 0.01 | 95 | 1019.3 |
| 20260506135044 | 37 | 0 | 0.0 | 2.0 | 0.00 | 0.09 | 0.01 | 95 | 1019.3 |
| 20260506134553 | 37 | 0 | 0.0 | 2.0 | 0.00 | 0.09 | 0.01 | 94 | 1019.3 |
| 20260506134044 | 37 | 0 | 0.0 | 0.0 | 0.00 | 0.09 | 0.01 | 94 | 1019.3 |
| 20260506133545 | 37 | 0 | 0.0 | 0.0 | 0.00 | 0.09 | 0.01 | 94 | 1019.2 |
| 20260506133057 | 36 | 0 | 0.0 | 0.0 | 0.00 | 0.09 | 0.01 | 94 | 1019.2 |
| 20260506132544 | 36 | 0 | 0.0 | 1.0 | 0.00 | 0.09 | 0.01 | 94 | 1019.1 |
| 20260506132045 | 36 | 0 | 0.0 | 1.0 | 0.00 | 0.09 | 0.01 | 94 | 1019.1 |
| 20260506131556 | 36 | 0 | 0.0 | 1.0 | 0.00 | 0.09 | 0.01 | 94 | 1019.0 |
| 20260506131045 | 36 | 0 | 0.0 | 1.0 | 0.00 | 0.09 | 0.01 | 94 | 1019.0 |
| 20260506130545 | 36 | 0 | 0.0 | 1.0 | 0.00 | 0.09 | 0.01 | 94 | 1018.8 |
| 20260506130059 | 36 | 0 | 0.0 | 0.0 | 0.00 | 0.09 | 0.01 | 94 | 1018.8 |
| 20260506125545 | 36 | 0 | 0.0 | 0.0 | 0.00 | 0.10 | 0.01 | 94 | 1018.8 |
| 20260506125045 | 36 | 0 | 0.0 | 0.0 | 0.00 | 0.10 | 0.01 | 94 | 1018.7 |
| 20260506124558 | 36 | 0 | 0.0 | 0.0 | 0.00 | 0.10 | 0.01 | 94 | 1018.7 |
| 20260506124048 | 36 | 0 | 0.0 | 0.0 | 0.00 | 0.10 | 0.01 | 94 | 1018.6 |
| 20260506123548 | 36 | 0 | 0.0 | 0.0 | 0.00 | 0.10 | 0.01 | 94 | 1018.6 |
| 20260506123054 | 36 | 0 | 0.0 | 0.0 | 0.00 | 0.10 | 0.01 | 94 | 1018.6 |
| 20260506122545 | 36 | 0 | 0.0 | 0.0 | 0.00 | 0.10 | 0.01 | 94 | 1018.5 |
| 20260506122045 | 36 | 0 | 0.0 | 0.0 | 0.00 | 0.10 | 0.01 | 94 | 1018.5 |
| 20260506121550 | 36 | 0 | 0.0 | 0.0 | 0.00 | 0.10 | 0.01 | 94 | 1018.5 |
| 20260506121044 | 36 | 0 | 0.0 | 0.0 | 0.00 | 0.10 | 0.01 | 94 | 1018.6 |
| 20260506120545 | 36 | 0 | 0.0 | 0.0 | 0.00 | 0.10 | 0.01 | 94 | 1018.5 |
| 20260506120055 | 37 | 0 | 0.0 | 1.0 | 0.00 | 0.10 | 0.01 | 94 | 1018.5 |
| 20260506115545 | 37 | 0 | 0.0 | 1.0 | 0.00 | 0.11 | 0.01 | 94 | 1018.5 |
| 20260506115048 | 37 | 0 | 0.0 | 1.0 | 0.00 | 0.11 | 0.01 | 94 | 1018.5 |
| 20260506114600 | 37 | 0 | 0.0 | 1.0 | 0.00 | 0.11 | 0.01 | 94 | 1018.5 |
| 20260506114048 | 37 | 0 | 0.0 | 1.0 | 0.00 | 0.11 | 0.01 | 94 | 1018.5 |
| 20260506113545 | 37 | 0 | 0.0 | 1.0 | 0.00 | 0.11 | 0.01 | 94 | 1018.5 |
| 20260506113059 | 37 | 0 | 0.0 | 1.0 | 0.00 | 0.11 | 0.01 | 94 | 1018.5 |
| 20260506112544 | 37 | 0 | 0.0 | 0.0 | 0.00 | 0.11 | 0.01 | 94 | 1018.5 |
| 20260506112044 | 37 | 0 | 0.0 | 1.0 | 0.00 | 0.11 | 0.01 | 93 | 1018.5 |
| 20260506111602 | 37 | 0 | 0.0 | 1.0 | 0.00 | 0.11 | 0.01 | 93 | 1018.4 |
| 20260506111046 | 37 | 0 | 0.0 | 1.0 | 0.00 | 0.11 | 0.01 | 93 | 1018.5 |
| 20260506110545 | 37 | 0 | 0.0 | 0.0 | 0.00 | 0.11 | 0.01 | 93 | 1018.4 |
| 20260506110050 | 37 | 0 | 0.0 | 1.0 | 0.00 | 0.11 | 0.01 | 93 | 1018.4 |
| 20260506105545 | 37 | 0 | 0.0 | 2.0 | 0.00 | 0.12 | 0.01 | 93 | 1018.4 |
| 20260506105044 | 37 | 0 | 0.0 | 2.0 | 0.00 | 0.12 | 0.01 | 93 | 1018.3 |
| 20260506104557 | 37 | 0 | 0.0 | 1.0 | 0.00 | 0.12 | 0.01 | 93 | 1018.3 |
| 20260506104048 | 37 | 0 | 0.0 | 1.0 | 0.00 | 0.12 | 0.01 | 93 | 1018.3 |
| 20260506103545 | 38 | 0 | 0.0 | 1.0 | 0.00 | 0.12 | 0.01 | 93 | 1018.3 |
| 20260506103101 | 38 | 0 | 0.0 | 0.0 | 0.00 | 0.12 | 0.01 | 93 | 1018.3 |
| 20260506102547 | 38 | 0 | 0.0 | 0.0 | 0.00 | 0.12 | 0.01 | 93 | 1018.3 |
| 20260506102044 | 39 | 0 | 0.0 | 0.0 | 0.00 | 0.12 | 0.01 | 93 | 1018.3 |
| 20260506101553 | 39 | 0 | 0.0 | 1.0 | 0.00 | 0.12 | 0.01 | 93 | 1018.3 |
| 20260506101046 | 39 | 0 | 0.0 | 1.0 | 0.00 | 0.12 | 0.01 | 94 | 1018.3 |
| 20260506100544 | 39 | 0 | 0.0 | 1.0 | 0.00 | 0.12 | 0.01 | 93 | 1018.3 |
| 20260506100100 | 39 | 0 | 0.0 | 1.0 | 0.00 | 0.12 | 0.01 | 94 | 1018.3 |
| 20260506095545 | 39 | 0 | 0.0 | 1.0 | 0.00 | 0.12 | 0.01 | 93 | 1018.4 |
| 20260506095047 | 39 | 0 | 0.0 | 2.0 | 0.00 | 0.12 | 0.01 | 93 | 1018.4 |
| 20260506094555 | 40 | 0 | 0.0 | 2.0 | 0.00 | 0.12 | 0.01 | 93 | 1018.3 |
| 20260506094044 | 40 | 0 | 0.0 | 2.0 | 0.00 | 0.12 | 0.01 | 93 | 1018.3 |
| 20260506093547 | 40 | 0 | 0.0 | 2.0 | 0.00 | 0.12 | 0.01 | 93 | 1018.3 |
| 20260506093051 | 40 | 0 | 0.0 | 2.0 | 0.00 | 0.12 | 0.01 | 93 | 1018.2 |
| 20260506092546 | 40 | 0 | 0.0 | 1.0 | 0.00 | 0.12 | 0.01 | 93 | 1018.2 |
| 20260506092044 | 40 | 0 | 0.0 | 1.0 | 0.00 | 0.12 | 0.01 | 93 | 1018.2 |
| 20260506091554 | 40 | 0 | 0.0 | 0.0 | 0.00 | 0.12 | 0.01 | 93 | 1018.3 |
| 20260506091047 | 40 | 0 | 0.0 | 0.0 | 0.00 | 0.12 | 0.01 | 93 | 1018.3 |
| 20260506090544 | 41 | 0 | 0.0 | 0.0 | 0.00 | 0.12 | 0.01 | 93 | 1018.4 |
| 20260506090050 | 41 | 0 | 0.0 | 0.0 | 0.00 | 0.12 | 0.01 | 93 | 1018.4 |
| 20260506085544 | 41 | 0 | 0.0 | 0.0 | 0.00 | 0.13 | 0.01 | 93 | 1018.4 |
| 20260506085047 | 41 | 0 | 0.0 | 0.0 | 0.00 | 0.13 | 0.01 | 93 | 1018.5 |
| 20260506084554 | 41 | 0 | 0.0 | 0.0 | 0.00 | 0.13 | 0.01 | 93 | 1018.7 |
| 20260506084045 | 41 | 0 | 0.0 | 1.0 | 0.01 | 0.13 | 0.01 | 93 | 1018.6 |